Content
SEND FEEDBACK

Daily
Averages
Monthly
Summary
Malaysia

ALOR SETAR, MALAYSIA


Home > Asia > Malaysia
Elevation: 13 feet     Latitude: 06 11N     Longitude: 100 24E

WEATHER
 
SELECT A DAY
Number of Records: 90,458;   Date Range: 6/24/00 - 7/27/14
 
SHARE

PRINT THIS DATA

[ ← Previous Day ]
WEATHER ALMANAC - AUGUST 14, 2013
[ Next Day → ]
[ °C ]   °F
Weather ElementAverageHighLow
Temperature81.8 °F87.8 °F (12:00 pm)77 °F (3:00 am)
Dewpoint77.9 °F80.6 °F (12:00 pm)75.2 °F (4:00 am)
Humidity88.3 %100 % (3:00 am)75 % (4:00 pm)
Barometer29.75 in29.80 in (10:00 am)29.71 in (4:00 am)
Wind Speed2.2 mph6.9 mph (3:00 pm)
Weather ElementAverage
Visibility6.2 mi
Wind DirectionESE (113.5 °)

Weather ElementTotal
Precipitation---
Cooling Degree Days17.4 (Base 65)
Growing Degree Days32.4 (Base 50)
Averaged from 23 records on August 14, 2013
WEATHER CONDITIONS BREAKOUT
WIND DIRECTION BREAKOUT
WEATHER BY HOUR - AUGUST 14, 2013
[ °C ]   °F
Local TimeTemperatureDewpointHumidityBarometerVisibilityWind DirectionWind SpeedGust SpeedPrecipitationEventsConditions
1:00 AM78.8 °F77.0 °F94 %29.77 in6.2 miNNE (30°)3.5 mphMostly Cloudy
2:00 AM78.8 °F77.0 °F94 %29.74 in6.2 miCalmMostly Cloudy
3:00 AM77.0 °F77.0 °F100 %29.74 in6.2 miCalmMostly Cloudy
4:00 AM77.0 °F75.2 °F94 %29.71 in6.2 miESE (110°)2.3 mphMostly Cloudy
5:00 AM77.0 °F75.2 °F94 %29.71 in6.2 miCalmMostly Cloudy
6:00 AM77.0 °F75.2 °F94 %29.71 in6.2 miENE (70°)1.2 mphMostly Cloudy
7:00 AM77.0 °F75.2 °F94 %29.74 in6.2 miEast (80°)2.3 mphMostly Cloudy
8:00 AM77.0 °F75.2 °F94 %29.74 in6.2 miCalmMostly Cloudy
9:00 AM78.8 °F77.0 °F94 %29.77 in6.2 miESE (110°)1.2 mphMostly Cloudy
10:00 AM80.6 °F77.0 °F89 %29.80 in6.2 miEast (100°)2.3 mphMostly Cloudy
11:00 AM84.2 °F78.8 °F84 %29.80 in6.2 miEast (90°)2.3 mphMostly Cloudy
12:00 PM87.8 °F80.6 °F79 %29.80 in6.2 miWNW (300°)2.3 mphMostly Cloudy
1:00 PM87.8 °F80.6 °F79 %29.77 in6.2 miNW (320°)2.3 mphMostly Cloudy
2:00 PM86.0 °F78.8 °F79 %29.74 in6.2 miNNE (20°)2.3 mphMostly Cloudy
3:00 PM87.8 °F80.6 °F79 %29.74 in6.2 miWSW (240°)6.9 mphMostly Cloudy
4:00 PM87.8 °F78.8 °F75 %29.71 in6.2 miWSW (250°)5.8 mphMostly Cloudy
5:00 PM87.8 °F78.8 °F75 %29.71 in6.2 miWSW (250°)5.8 mphMostly Cloudy
6:00 PM84.2 °F78.8 °F84 %29.71 in6.2 miWest (270°)4.6 mphMostly Cloudy
7:00 PM82.4 °F78.8 °F89 %29.74 in6.2 miWest (280°)2.3 mphMostly Cloudy
8:00 PM82.4 °F78.8 °F89 %29.74 in6.2 miCalmMostly Cloudy
9:00 PM82.4 °F78.8 °F89 %29.77 in6.2 miCalmMostly Cloudy
10:00 PM80.6 °F78.8 °F94 %29.80 in6.2 miNE (40°)1.2 mphMostly Cloudy
11:00 PM80.6 °F78.8 °F94 %29.80 in6.2 miNE (50°)2.3 mphMostly Cloudy
Hourly data recorded from WMKA, located miles away from Alor Setar, Malaysia







STORIES FROM OUR PARTNERS